Regional Weather Roundup
Issued by NWS

Home | Current Version | Previous Version | Text Only | Print | Product List | Glossary On
Versions: 1 2 3 4 5 6 7 8 9 10 11 12 13 14 15 16 17 18 19 20 21 22 23 24 25 26 27 28 29 30 31 32 33 34 35 36 37 38 39 40 41 42 43 44 45 46 47 48 49 50
000
ASUS44 KJAN 081810
RWRMS

MISSISSIPPI HOURLY WEATHER ROUNDUP
NATIONAL WEATHER SERVICE JACKSON MS
1200 PM CST MON FEB 08 2016

NOTE: "FAIR: INDICATES FEW OR NO CLOUDS BELOW 12,000 FEET WITH NO
SIGNIFICANT WEATHER AND/OR OBSTRUCTIONS TO VISIBILITY.

MSZ001>002-007>008-010>013-018>021-025>028-034>036-081900-
NORTHWEST MISSISSIPPI

CITY           SKY/WX    TMP DP  RH WIND       PRES   REMARKS
CLEVELAND      CLOUDY    47  26  43 NW23G30   30.03S
GREENWOOD      PTSUNNY   49  21  33 NW14G26   30.00F
6HR MIN TEMP:  43; 6HR MAX TEMP:  51;

GREENVILLE     LGT RAIN  48  22  35 NW21G32   30.03F
6HR MIN TEMP:  42; 6HR MAX TEMP:  50; 6HR PCP: TRACE;

OLIVE BRANCH   CLOUDY    39  25  56 NW17G31   29.96R WCI  30
OXFORD         PTSUNNY   43  19  39 NW17G28   29.97S
TUNICA         CLOUDY    43  23  45 W18       30.00S
$$

MSZ003>006-009-014>017-022>024-029>033-037>039-081900-
NORTHEAST MISSISSIPPI

CITY           SKY/WX    TMP DP  RH WIND       PRES   REMARKS
COLUMBUS AFB   NOT AVBL
CORINTH        CLOUDY    45  25  45 W17       29.88F
GOLDN TRIANGLE MOSUNNY   52  23  32 NW16G28   29.92F
TUPELO         CLOUDY    47  21  35 W14G21    29.91F
6HR MIN TEMP:  43; 6HR MAX TEMP:  49;

$$

MSZ040-058-081900-
CENTRAL MISSISSIPPI

CITY           SKY/WX    TMP DP  RH WIND       PRES   REMARKS
JACKSON INTL   MOSUNNY   51  22  31 W18       30.02F
6HR MIN TEMP:  46; 6HR MAX TEMP:  58;

JACKSON HAWKNS PTSUNNY   50  20  30 W22G33    30.03F
6HR MIN TEMP:  42; 6HR MAX TEMP:  53;

MERIDIAN KEY   MOSUNNY   53  19  26 W22G30    29.96F
6HR MIN TEMP:  33; 6HR MAX TEMP:  56;

MERIDIAN NAS   MOSUNNY   53  19  26 NW21G30   29.95F
6HR MIN TEMP:  40; 6HR MAX TEMP:  54;

VICKSBURG      SUNNY     52  21  29 W21G29    30.07F
6HR MIN TEMP:  45; 6HR MAX TEMP:  53;

$$

MSZ059>079-081900-
SOUTH MISSISSIPPI

CITY           SKY/WX    TMP DP  RH WIND       PRES   REMARKS
BROOKHAVEN     FAIR      52  25  35 W15G28    30.06F
HATTIESBURG    MOSUNNY   56  20  24 W20G31    30.02F
6HR MIN TEMP:  44; 6HR MAX TEMP:  57;

MCCOMB         SUNNY     53  17  24 W21G33    30.05F
6HR MIN TEMP:  40; 6HR MAX TEMP:  54;

NATCHEZ        SUNNY     54  19  26 NW24G31   30.09F
6HR MIN TEMP:  43; 6HR MAX TEMP:  54;

PINE BELT      SUNNY     54  23  30 NW14G28   30.02F
6HR MIN TEMP:  37; 6HR MAX TEMP:  54;

$$

MSZ080>082-081900-
COASTAL MISSISSIPPI

CITY           SKY/WX    TMP DP  RH WIND       PRES   REMARKS
BAY ST LOUIS   SUNNY     57  18  21 W12G23    30.04
BILOXI         NOT AVBL
PASCAGOULA     SUNNY     60  27  28 W14G25    29.98F
6HR MIN TEMP:  44; 6HR MAX TEMP:  61;

GULFPORT       SUNNY     58  28  32 W21G31    30.01F
6HR MIN TEMP:  43; 6HR MAX TEMP:  59;

$$



USA.gov is the U.S. government's official web portal to all federal, state and local government web resources and services.